Weather reports worldwide

Advertisment
Firenze/Peretola, Italy (16170): temperature & dewpoint: 10.07.2018 18:00:00 - 16.07.2018 18:00:00 (CEST)Firenze/Peretola, Italy (16170): wind speed: 10.07.2018 18:00:00 - 16.07.2018 18:00:00 (CEST)Firenze/Peretola, Italy (16170): wind direction: 10.07.2018 18:00:00 - 16.07.2018 18:00:00 (CEST)Firenze/Peretola, Italy (16170): reduced air pressure: 10.07.2018 18:00:00 - 16.07.2018 18:00:00 (CEST)Firenze/Peretola, Italy (16170): visibility: 10.07.2018 18:00:00 - 16.07.2018 18:00:00 (CEST)Firenze/Peretola, Italy (16170): precipitation: 10.07.2018 18:00:00 - 16.07.2018 18:00:00 (CEST)
Date & Time tt [°C] td [°C] ff [km/h] ff [kn] dd ppp [hPa] vv [km] rr [mm]
16.07.2018 18:00:00 - - - - - - - -
16.07.2018 17:00:00 - - - - - - - -
16.07.2018 16:00:00 30,0 15,0 5 3 - - 10 -
16.07.2018 15:00:00 30,0 17,0 8 4 SW - 10 -
16.07.2018 14:00:00 29,3 16,7 8 4 - 1012,3 10 -
16.07.2018 13:00:00 29,0 16,0 8 4 - - 10 -
16.07.2018 12:00:00 29,0 15,0 5 3 S - 10 -
16.07.2018 11:00:00 28,1 17,4 9 5 SSW 1013,4 10 0,0
16.07.2018 10:00:00 27,0 19,0 4 2 - - 10 -
16.07.2018 09:00:00 25,0 20,0 4 2 - - 10 -
16.07.2018 08:00:00 23,7 19,4 5 3 S 1014,1 10 -
16.07.2018 07:00:00 21,0 19,0 5 3 E - 10 -
16.07.2018 06:00:00 22,0 19,0 5 3 SE - 10 -
16.07.2018 05:00:00 21,7 18,8 4 2 - 1014,0 10 0,0
16.07.2018 04:00:00 - - - - - - - -
16.07.2018 03:00:00 21,0 19,0 5 3 ESE - 10 -
16.07.2018 02:00:00 22,8 20,2 4 2 E 1014,4 10 -
16.07.2018 01:00:00 22,0 18,0 4 2 NW - 10 -
16.07.2018 00:00:00 23,0 18,0 4 2 - - 10 -
15.07.2018 23:00:00 22,4 17,6 4 2 NW 1014,3 10 0,0
15.07.2018 22:00:00 24,0 17,0 2 1 - - 10 -
15.07.2018 21:00:00 26,0 17,0 5 3 WNW - 10 -
15.07.2018 20:00:00 26,8 15,9 8 4 WNW 1012,9 10 -
15.07.2018 19:00:00 28,0 16,0 31 17 N - 10 -
15.07.2018 18:00:00 32,0 19,0 24 13 WSW - 10 -
15.07.2018 17:00:00 33,3 19,4 21 11 WSW 1011,7 10 0,0
15.07.2018 16:00:00 34,0 16,0 9 5 W - 10 -
15.07.2018 15:00:00 34,0 14,0 11 6 WSW - 10 -
15.07.2018 14:00:00 33,5 14,4 13 7 S 1013,1 10 -
15.07.2018 13:00:00 32,0 16,0 9 5 - - 10 -
15.07.2018 12:00:00 31,0 18,0 5 3 - - 10 -
15.07.2018 11:00:00 29,4 16,5 4 2 - 1014,1 10 0,0
15.07.2018 10:00:00 27,0 16,0 5 3 WNW - 10 -
15.07.2018 09:00:00 25,0 16,0 4 2 - - 10 -
15.07.2018 08:00:00 24,0 16,1 2 1 - 1014,0 10 -
15.07.2018 07:00:00 20,0 16,0 4 2 - - 10 -
15.07.2018 06:00:00 20,0 16,0 4 2 - - 10 -
15.07.2018 05:00:00 21,3 15,8 2 1 - 1013,6 10 0,0
15.07.2018 04:00:00 21,0 15,0 2 1 - - 10 -
15.07.2018 03:00:00 - - - - - - - -
15.07.2018 02:00:00 22,8 13,8 4 2 E 1014,1 - -
15.07.2018 01:00:00 - - - - - - - -
15.07.2018 00:00:00 25,0 15,0 5 3 ESE - 10 -
14.07.2018 23:00:00 25,3 15,3 4 2 - 1014,8 10 0,0
14.07.2018 22:00:00 28,0 16,0 5 3 WNW - 10 -
14.07.2018 21:00:00 31,0 16,0 15 8 WSW - 10 -
14.07.2018 20:00:00 32,6 16,2 15 8 WSW 1012,7 10 -
14.07.2018 19:00:00 34,0 15,0 11 6 W - 10 -
14.07.2018 18:00:00 35,0 14,0 11 6 W - 10 -
14.07.2018 17:00:00 33,9 13,4 11 6 W 1013,6 10 0,0
14.07.2018 16:00:00 34,0 14,0 9 5 - - 10 -
14.07.2018 15:00:00 35,0 14,0 9 5 - - 10 -
14.07.2018 14:00:00 33,4 12,9 9 5 WSW 1015,7 10 -
14.07.2018 13:00:00 32,0 13,0 8 4 SSW - 10 -
14.07.2018 12:00:00 31,0 15,0 4 2 - - 10 -
14.07.2018 11:00:00 28,2 14,4 4 2 - 1017,2 10 0,0
14.07.2018 10:00:00 26,0 15,0 4 2 - - 10 -
14.07.2018 09:00:00 23,0 15,0 4 2 - - 10 -
14.07.2018 08:00:00 22,1 14,5 2 1 - 1018,1 10 -
14.07.2018 07:00:00 18,0 14,0 2 1 - - 10 -
14.07.2018 06:00:00 18,0 14,0 2 1 - - 10 -
14.07.2018 05:00:00 17,8 13,4 4 2 - 1017,8 10 0,0
14.07.2018 04:00:00 18,0 13,0 5 3 ENE - 10 -
14.07.2018 03:00:00 19,0 13,0 4 2 NNW - 10 -
14.07.2018 02:00:00 20,5 12,7 4 2 - 1017,6 10 -
14.07.2018 01:00:00 21,0 13,0 5 3 E - 10 -
14.07.2018 00:00:00 22,0 13,0 8 4 ENE - 10 -
13.07.2018 23:00:00 22,3 13,2 0 0 N 1017,5 25 0,0
13.07.2018 22:00:00 26,0 13,0 8 4 SW - 10 -
13.07.2018 21:00:00 28,0 14,0 9 5 W - 10 -
13.07.2018 20:00:00 30,6 12,3 13 7 WSW 1015,8 10 -
13.07.2018 19:00:00 32,0 14,0 21 11 SW - 10 -
13.07.2018 18:00:00 33,0 15,0 13 7 WSW - 10 -
13.07.2018 17:00:00 33,0 13,0 13 7 WSW 1015,8 10 0,0
13.07.2018 16:00:00 33,0 13,0 13 7 SW - 10 -
13.07.2018 15:00:00 33,0 14,0 9 5 S - 10 -
13.07.2018 14:00:00 31,8 14,2 11 6 W 1016,9 10 -
13.07.2018 13:00:00 31,0 15,0 9 5 - - 10 -
13.07.2018 12:00:00 29,0 16,0 5 3 W - 10 -
13.07.2018 11:00:00 27,6 17,3 4 2 - 1017,8 10 0,0
13.07.2018 10:00:00 25,0 18,0 5 3 SSW - 10 -
13.07.2018 09:00:00 24,0 18,0 4 2 - - 10 -
13.07.2018 08:00:00 21,9 17,3 4 2 - 1017,9 10 -
13.07.2018 07:00:00 19,0 17,0 4 2 - - 10 -
13.07.2018 06:00:00 19,0 17,0 2 1 - - 10 -
13.07.2018 05:00:00 19,9 16,6 4 2 - 1017,3 10 0,0
13.07.2018 04:00:00 19,0 16,0 4 2 - - 10 -
13.07.2018 03:00:00 20,0 16,0 9 5 E - 10 -
13.07.2018 02:00:00 19,3 16,4 9 5 E 1016,9 10 -
13.07.2018 01:00:00 21,0 17,0 4 2 - - 10 -
13.07.2018 00:00:00 22,0 17,0 2 1 - - 10 -
12.07.2018 23:00:00 23,4 16,8 5 3 WNW 1016,4 10 0,0
12.07.2018 22:00:00 26,0 16,0 9 5 W - 10 -
12.07.2018 21:00:00 27,0 15,0 13 7 WSW - 10 -
12.07.2018 20:00:00 28,7 13,4 15 8 SW 1014,6 10 -
12.07.2018 19:00:00 29,0 17,0 16 9 WSW - 10 -
12.07.2018 18:00:00 30,0 17,0 13 7 WSW - 10 -
12.07.2018 17:00:00 30,4 17,5 11 6 W 1014,6 10 0,0
12.07.2018 16:00:00 29,0 18,0 13 7 WNW - 10 -
12.07.2018 15:00:00 29,0 17,0 11 6 WSW - 10 -
12.07.2018 14:00:00 29,4 16,5 15 8 WSW 1015,2 10 -
12.07.2018 13:00:00 29,0 16,0 8 4 - - 10 -
12.07.2018 12:00:00 29,0 17,0 8 4 - - 10 -
12.07.2018 11:00:00 26,6 17,6 9 5 - 1015,3 10 0,0
12.07.2018 10:00:00 26,0 18,0 4 2 - - 10 -
12.07.2018 09:00:00 24,0 16,0 2 1 - - 10 -
12.07.2018 08:00:00 21,5 15,7 4 2 - 1015,0 10 -
12.07.2018 07:00:00 20,0 15,0 4 2 SSW - 10 -
12.07.2018 06:00:00 19,0 16,0 5 3 E - 10 -
12.07.2018 05:00:00 20,0 16,4 5 3 ENE 1014,5 10 0,0
12.07.2018 04:00:00 20,0 17,0 4 2 - - 10 -
12.07.2018 03:00:00 22,0 17,0 9 5 SSW - 10 -
12.07.2018 02:00:00 22,4 17,2 8 4 SSW 1014,2 10 -
12.07.2018 01:00:00 23,0 17,0 9 5 SSW - 10 -
12.07.2018 00:00:00 24,0 17,0 9 5 SW - 10 -
11.07.2018 23:00:00 24,2 15,8 9 5 WSW 1013,3 10 0,0
11.07.2018 22:00:00 25,0 17,0 11 6 WSW - 10 -
11.07.2018 21:00:00 27,0 17,0 13 7 W - 10 -
11.07.2018 20:00:00 27,5 15,9 13 7 W 1011,4 10 -
11.07.2018 19:00:00 29,0 17,0 18 10 WNW - 10 -
11.07.2018 18:00:00 30,0 17,0 21 11 W - 10 -
11.07.2018 17:00:00 30,3 16,6 21 11 W 1010,4 10 0,0
11.07.2018 16:00:00 32,0 15,0 18 10 W - 10 -
11.07.2018 15:00:00 32,0 14,0 22 12 WSW - 10 -
11.07.2018 14:00:00 31,5 15,7 16 9 SW 1010,4 10 -
11.07.2018 13:00:00 30,0 16,0 13 7 W - 10 -
11.07.2018 12:00:00 28,0 17,0 11 6 S - 10 -
11.07.2018 11:00:00 28,4 17,6 8 4 SE 1011,0 10 0,0
11.07.2018 10:00:00 27,0 16,0 13 7 SE - 10 -
11.07.2018 09:00:00 26,0 16,0 9 5 E - 10 -
11.07.2018 08:00:00 24,0 16,9 9 5 ENE 1011,5 10 -
11.07.2018 07:00:00 24,0 16,0 11 6 E - 10 -
11.07.2018 06:00:00 24,0 16,0 11 6 SE - 10 -
11.07.2018 05:00:00 23,8 17,0 5 3 S 1011,2 10 0,0
11.07.2018 04:00:00 23,0 18,0 5 3 NE - 10 -
11.07.2018 03:00:00 24,0 19,0 4 2 - - 10 -
11.07.2018 02:00:00 24,1 18,4 2 1 - 1011,9 10 -
11.07.2018 01:00:00 24,0 18,0 2 1 - - 10 -
11.07.2018 00:00:00 24,0 17,0 4 2 - - 10 -
10.07.2018 23:00:00 24,8 16,7 5 3 SW 1012,3 10 0,0
10.07.2018 22:00:00 27,0 17,0 9 5 WSW - 10 -
10.07.2018 21:00:00 28,0 17,0 11 6 W - 10 -
10.07.2018 20:00:00 29,0 15,9 15 8 WSW 1011,0 10 -
10.07.2018 19:00:00 29,0 17,0 16 9 W - 10 -
10.07.2018 18:00:00 31,0 16,0 18 10 W - 10 -

tt = temperature
td = dewpoint
ff = wind speed
dd = wind direction
ppp = reduced air pressure
vv = visibility
rr = precipitation

Next stations